Wind_Speed
14 13 13 13 13 13 13 14 14 14 14 14 13 12 12 12 12 11 12 13 13 14 15 15 16 16 16 18 19 19 19 19 20 20 19 19 20 20 20 20 20 19 18 18 17 16 16 16 15 14 13 13 13 13 13 14 15 15 16 16 16 15 15 15 14 13 12 12 11 11 10 10 9 9 10 11 11 10 8 7 7 8 9 10 9
17 15 14 14 13 13 13 14 14 15 14 14 14 13 13 12 12 12 13 13 14 14 15 15 16 16 16 17 18 18 18 18 18 18 18 18 19 19 19 19 19 19 19 18 17 16 15 15 14 13 13 12 12 12 12 13 13 13 13 14 14 15 15 15 15 14 13 12 11 10 10 9 9 9 9 10 11 9 8 8 7 7 8 8 8
19 17 15 15 14 14 15 15 15 15 14 14 14 13 13 12 13 13 13 13 14 15 15 15 15 15 16 17 17 18 18 17 17 17 17 17 18 17 17 17 18 18 18 17 16 15 14 14 14 13 13 12 12 11 12 12 12 12 12 12 12 13 14 14 15 14 13 12 10 10 10 9 9 10 8 8 10 9 8 8 8 8 8 8 8
20 18 17 16 15 15 15 15 15 14 14 14 14 13 13 12 13 13 13 14 14 15 14 15 15 14 15 16 16 17 17 16 16 16 16 16 16 17 16 16 16 16 16 16 15 14 14 13 13 12 12 12 11 10 11 11 12 11 12 12 12 13 12 12 13 13 11 10 10 10 10 10 9 9 8 8 9 9 8 8 8 8 8 7 8
22 19 18 17 16 15 14 15 14 14 14 14 14 14 13 13 14 14 13 14 14 14 14 14 15 14 15 15 15 16 16 16 15 15 15 14 15 16 16 16 16 16 15 15 14 13 13 13 13 13 12 11 10 10 10 11 12 12 12 12 12 12 11 11 11 10 10 9 10 11 11 11 10 9 9 9 8 8 8 8 8 7 7 7 7
22 20 18 18 16 16 14 14 14 13 14 13 13 13 14 14 15 14 14 14 14 14 14 14 14 15 15 15 15 16 15 15 15 14 14 14 15 16 16 16 15 15 15 14 14 13 14 14 13 12 12 10 10 10 11 12 12 12 12 11 12 11 11 11 10 9 9 10 10 11 12 13 12 10 9 9 8 8 8 7 7 7 7 6 6
22 21 19 19 18 16 15 14 13 13 13 13 12 13 14 15 15 14 15 14 14 14 14 14 15 15 15 15 15 15 15 15 14 14 14 14 14 15 15 15 15 14 14 14 13 13 13 13 12 11 11 10 9 10 11 12 13 13 12 11 11 11 11 10 9 9 8 9 10 11 11 12 12 11 10 9 8 8 7 7 7 7 7 6 6
22 22 20 19 18 17 15 14 13 13 12 12 12 13 15 15 15 15 15 15 14 14 14 14 15 15 15 15 15 14 14 14 14 14 14 14 14 14 14 14 14 13 13 13 13 12 12 12 11 10 10 9 9 10 12 13 14 13 11 10 9 9 9 9 9 8 8 7 10 10 9 10 11 11 10 9 8 8 7 7 6 6 6 6 6
23 21 20 20 18 17 15 14 13 13 12 12 12 13 15 15 15 15 16 15 15 14 13 14 14 15 15 15 15 14 14 14 15 14 13 13 13 13 13 12 12 12 12 13 13 12 12 11 11 10 10 10 10 10 12 13 13 11 10 7 6 6 6 7 8 8 8 8 9 9 8 8 9 10 9 9 8 7 7 6 5 5 5 5 5
22 20 20 20 18 17 15 15 14 14 13 12 12 13 14 14 15 15 15 15 15 14 14 14 14 14 15 16 15 14 13 14 14 14 14 13 13 13 12 11 11 12 12 12 12 12 11 10 10 11 11 12 11 11 11 11 11 9 8 6 5 3 3 5 6 8 9 9 9 7 7 7 9 9 8 9 9 7 6 5 4 5 6 5 3
20 19 20 20 19 17 17 16 14 14 14 14 13 13 14 14 14 14 14 14 14 15 15 15 14 15 15 16 15 14 12 12 12 13 14 13 13 12 11 10 10 11 11 11 11 11 10 10 10 10 10 11 12 11 11 10 9 7 6 4 3 2 4 3 6 9 9 10 9 7 6 7 9 9 8 9 8 8 6 5 4 4 4 4 2
20 19 20 20 19 18 18 16 16 15 14 14 13 14 14 14 14 14 14 13 14 15 15 15 15 14 14 15 15 14 12 12 12 12 13 13 12 11 11 10 9 10 10 10 10 10 9 9 9 9 9 9 10 11 10 9 7 6 5 4 4 6 7 5 7 11 10 9 9 7 6 8 9 9 8 8 7 7 6 5 4 4 3 2 2
21 19 21 21 19 18 18 16 16 15 15 14 14 14 14 15 14 13 14 13 14 14 14 14 14 14 14 15 15 13 12 12 13 12 12 12 11 10 10 9 9 9 8 8 8 9 8 8 8 7 7 8 9 10 10 8 7 6 5 6 7 7 8 6 9 13 12 10 9 7 7 9 11 9 8 7 7 5 5 5 4 4 3 3 3
22 21 22 21 19 19 18 17 16 15 15 14 14 14 14 15 14 14 14 13 14 14 15 14 14 14 13 14 14 13 13 13 12 12 12 11 10 9 9 9 8 8 8 7 7 8 7 7 6 6 6 6 8 10 10 9 7 7 7 8 8 7 8 6 11 13 13 10 8 7 7 10 10 9 8 7 6 4 4 3 2 3 3 3 3
22 23 22 21 20 19 18 17 16 16 15 14 14 13 14 15 15 14 13 13 13 14 15 14 13 13 13 14 13 13 13 12 11 11 11 10 9 8 8 8 8 8 7 7 7 6 5 5 5 5 5 6 7 8 9 8 7 7 7 7 7 6 6 7 12 12 11 8 6 7 8 9 9 8 8 7 6 4 4 3 1 1 1 1 2
22 23 22 21 20 19 19 18 17 16 16 15 14 13 13 15 15 14 14 13 12 13 14 14 14 13 13 13 13 13 12 11 10 11 10 9 9 8 8 8 8 7 7 6 6 5 4 4 4 5 5 6 7 7 8 7 6 6 5 5 6 7 6 8 11 10 7 5 5 7 9 10 9 8 7 6 4 3 2 3 2 1 1 2 2
23 23 23 22 21 20 19 18 17 16 16 15 14 13 12 14 15 14 14 13 12 12 13 14 14 14 14 13 13 12 12 11 10 10 9 8 7 7 8 8 7 7 6 6 5 4 3 4 5 5 6 7 7 8 8 7 6 5 5 6 7 7 6 8 9 7 4 4 5 7 9 9 8 7 6 5 3 3 2 1 1 1 1 3 4
24 23 24 23 22 20 19 18 17 17 16 15 14 13 13 14 14 14 14 13 13 12 12 13 13 13 13 14 13 12 11 11 10 9 8 7 6 6 7 7 7 6 6 5 4 3 3 4 5 6 6 7 7 8 7 6 6 5 6 6 6 6 5 7 5 4 4 4 6 7 8 8 6 5 5 3 4 3 3 3 2 1 3 5 5
23 23 24 23 22 21 19 19 18 18 17 16 15 14 14 14 14 14 13 13 13 13 12 12 12 12 12 13 13 12 12 11 11 9 7 5 5 6 7 7 6 6 6 5 4 4 5 5 5 6 6 6 6 6 5 5 6 6 6 6 6 6 6 6 5 5 5 6 6 6 7 7 5 3 3 3 3 3 3 4 3 2 3 4 5
21 23 23 22 23 22 20 20 19 18 17 17 16 15 14 14 14 14 13 13 12 12 12 11 11 12 12 13 13 13 13 12 10 8 7 5 5 7 7 7 6 6 6 5 5 5 5 5 5 5 5 5 5 5 5 6 7 8 7 6 6 7 6 6 7 8 7 7 6 6 6 6 5 4 3 3 2 3 4 4 4 3 3 4 5
20 22 22 22 23 23 22 21 21 20 18 17 17 15 14 14 14 14 13 13 12 12 12 12 12 12 12 13 14 14 14 12 10 8 6 5 6 7 7 7 6 6 6 5 5 5 5 4 3 4 5 5 5 5 6 7 8 8 10 9 8 7 6 7 9 9 9 9 7 6 5 5 6 5 4 4 3 3 4 4 5 4 5 5 5
20 21 21 21 22 23 22 22 22 21 20 18 17 16 15 15 15 14 13 13 14 14 14 14 14 14 13 13 15 15 15 13 10 8 6 6 7 7 7 6 6 6 6 6 6 6 5 4 3 4 5 5 5 5 8 10 10 12 13 12 11 10 8 10 11 11 11 11 10 8 7 7 8 6 4 4 3 3 4 5 6 6 6 6 7
22 22 21 21 21 22 22 22 22 21 20 19 19 18 18 17 16 16 15 15 15 15 15 14 14 14 13 13 15 15 14 12 10 8 6 6 7 7 7 6 7 7 7 6 5 4 3 3 4 5 4 3 3 6 9 11 12 13 13 13 14 12 11 12 12 13 14 13 13 12 11 11 11 9 7 7 6 6 6 8 8 8 8 8 9
24 24 22 21 21 21 20 20 21 21 21 20 21 19 19 18 18 17 17 16 15 15 14 13 14 14 13 13 14 14 13 11 10 8 7 7 8 8 7 7 7 7 6 5 3 3 4 5 7 6 3 3 5 8 12 13 13 12 11 11 12 12 12 13 14 14 15 15 15 14 13 13 13 11 10 10 10 10 10 10 10 9 10 10 11
25 24 22 22 22 21 20 20 20 21 21 20 21 20 19 19 19 18 17 16 15 14 14 14 15 14 14 13 13 13 12 10 9 9 8 8 9 9 8 7 7 6 4 3 4 5 7 8 8 4 2 7 9 11 15 15 13 11 9 9 9 10 12 13 13 14 14 15 14 14 13 12 13 11 10 11 11 12 11 11 10 10 11 11 12
23 23 23 23 23 21 20 19 20 20 20 20 20 20 20 20 19 18 17 16 15 15 15 15 15 15 14 13 14 12 11 10 9 10 9 9 10 9 8 7 5 4 3 4 5 7 9 10 9 2 7 11 13 13 14 14 12 9 7 7 7 8 11 12 12 12 12 12 12 12 12 11 11 10 10 10 11 12 12 12 11 11 12 12 13
23 23 24 23 23 22 21 20 20 19 18 18 19 20 20 19 19 18 17 16 15 16 16 16 15 15 14 14 14 13 11 10 10 11 10 10 10 10 8 5 4 3 4 6 6 8 8 9 7 4 10 12 12 12 11 11 9 7 6 6 6 7 7 9 10 10 10 9 10 10 10 10 10 9 9 9 10 11 11 11 11 11 12 12 14
23 23 23 23 23 23 22 21 21 19 17 17 18 19 19 19 19 19 18 17 16 17 17 17 16 15 15 15 14 13 12 11 12 11 10 10 9 8 6 3 3 4 4 5 6 7 7 7 5 8 11 11 11 10 10 8 7 6 7 7 7 7 6 6 7 8 8 7 7 8 8 8 9 9 9 8 9 9 10 11 10 10 11 12 15
24 24 23 22 22 21 22 22 22 20 18 17 18 18 19 19 19 19 19 17 17 17 17 17 16 15 15 15 14 14 13 13 12 10 9 8 6 4 3 2 1 2 4 5 5 6 5 6 5 8 10 9 9 8 8 8 7 7 8 8 7 6 6 5 6 6 6 6 5 6 7 7 8 8 8 8 8 8 9 10 10 10 11 11 13
24 24 23 22 21 21 22 22 22 21 19 18 18 18 19 19 19 19 19 18 18 17 17 18 17 16 15 14 14 14 14 13 10 8 7 5 3 2 1 1 1 2 3 4 3 3 3 5 4 7 9 7 6 5 5 6 8 9 10 9 7 5 5 5 5 5 5 5 5 5 5 5 7 7 7 7 8 8 8 9 10 10 10 10 11
24 23 23 23 22 22 22 22 22 21 19 19 18 19 20 20 19 18 18 18 17 17 17 17 17 16 14 14 14 14 13 12 9 7 5 4 3 1 1 2 2 2 3 3 1 1 2 3 4 5 6 7 5 3 4 6 8 10 10 9 8 6 5 4 3 4 4 4 4 5 4 4 6 7 7 7 7 7 8 8 9 10 10 9 9
24 24 23 22 23 23 23 23 22 20 20 20 19 19 20 19 19 18 18 17 17 17 17 17 17 16 14 14 14 14 13 11 9 6 4 4 3 0 2 3 2 1 2 2 2 1 1 1 2 3 3 4 3 2 5 7 8 9 9 9 9 8 6 5 3 3 3 3 3 3 3 4 5 6 7 7 6 6 8 8 9 9 10 10 8
25 25 24 23 22 23 22 22 21 19 20 20 20 19 19 19 19 18 17 17 17 17 17 17 17 17 16 15 15 14 12 10 7 5 5 5 3 1 2 2 2 2 2 3 3 2 0 1 1 2 2 1 1 1 6 8 8 8 9 9 11 10 7 5 3 2 2 2 3 3 3 3 4 6 7 7 7 7 8 8 8 9 10 10 9
26 25 25 24 22 22 21 20 20 20 20 20 20 19 19 19 19 19 18 18 18 17 17 17 17 17 16 16 14 13 11 8 6 5 4 4 4 3 2 3 2 2 3 3 3 3 1 1 1 1 2 2 3 2 3 7 7 7 8 9 11 10 8 7 5 2 2 1 3 4 3 3 3 5 7 7 7 8 8 8 9 9 9 10 9
27 28 27 25 23 22 20 19 19 19 19 19 19 19 19 19 20 20 19 19 18 17 17 17 18 16 15 15 13 12 9 7 6 5 4 5 6 4 3 3 3 3 4 4 4 4 4 3 3 3 3 2 3 5 3 2 3 5 7 6 8 8 7 7 5 3 2 1 3 4 4 4 5 6 7 6 6 7 8 7 8 9 9 10 9
28 28 27 24 22 21 20 19 18 19 18 17 18 19 19 19 20 21 20 20 18 17 17 17 17 15 14 14 12 12 9 7 7 6 6 6 6 4 4 4 4 4 4 5 5 5 5 3 2 3 3 3 3 5 4 3 5 9 9 8 7 6 5 5 4 2 1 1 3 4 5 5 6 7 6 6 6 6 8 8 8 8 8 10 10
28 27 27 24 20 21 20 19 19 19 17 16 18 19 20 20 20 21 20 18 17 16 16 17 16 15 14 13 12 11 9 7 7 8 8 6 5 5 5 5 4 4 5 6 7 6 6 4 3 3 3 3 4 4 4 4 5 6 6 7 5 3 3 3 2 2 2 2 2 4 5 6 6 6 5 5 5 5 7 8 8 7 8 10 10
28 27 27 25 21 20 20 20 19 18 16 16 19 20 20 19 19 20 18 16 16 15 16 16 16 16 14 13 13 12 10 8 8 10 9 6 5 5 6 6 5 5 6 7 7 7 6 6 6 5 4 3 3 4 3 3 4 5 5 5 3 1 1 2 3 4 3 3 3 3 4 5 5 5 4 5 5 5 6 7 7 7 8 9 10
28 27 25 25 22 20 20 20 19 17 16 16 19 21 19 18 18 18 16 15 15 15 16 15 15 15 15 13 13 13 10 9 11 12 9 6 6 6 6 6 6 5 6 5 5 4 5 5 5 5 4 4 2 2 2 1 1 3 4 4 2 2 3 3 4 5 4 4 3 2 2 3 5 5 4 4 5 6 6 6 6 7 7 8 10
28 27 25 25 23 21 20 19 19 18 18 17 19 21 19 18 18 17 16 16 17 16 15 14 14 16 15 13 14 14 12 11 12 11 8 6 7 7 6 6 6 6 6 5 3 2 3 4 4 4 4 3 2 2 3 3 4 4 4 5 4 4 5 6 7 7 6 7 6 3 2 2 4 5 5 4 5 6 6 5 5 6 7 7 9
27 27 25 25 23 23 22 20 20 20 20 19 20 22 21 20 19 18 18 18 18 17 16 15 14 16 15 14 15 15 14 13 13 10 7 6 7 8 7 7 7 7 5 4 3 2 3 4 4 4 4 3 3 3 3 4 5 5 4 5 5 5 7 8 8 7 7 8 8 6 4 4 4 5 5 4 5 6 5 5 5 6 7 7 8
27 27 26 24 23 24 23 21 21 22 22 20 21 23 22 21 21 20 20 19 19 19 18 16 15 15 15 15 15 16 16 15 13 10 7 7 7 8 8 7 7 6 6 5 4 3 3 5 5 4 5 5 5 4 3 3 4 3 2 2 4 5 7 8 8 7 7 8 9 8 7 7 6 4 3 3 5 4 4 6 6 6 7 7 7
28 28 26 25 24 24 24 22 22 22 22 21 22 23 23 21 21 20 20 20 20 20 18 16 15 16 16 16 15 15 16 15 13 10 8 8 8 8 8 7 5 5 7 6 5 5 4 5 5 4 5 6 7 5 4 4 4 2 0 2 3 3 4 6 7 8 8 8 7 6 6 6 5 5 4 4 4 3 4 6 6 6 7 7 6
27 27 26 26 25 25 25 23 22 23 23 22 22 22 22 20 19 19 20 19 19 19 17 15 16 17 17 17 15 14 15 16 14 12 10 9 8 9 8 7 5 5 7 6 6 5 5 5 5 4 5 5 5 3 3 4 5 3 1 1 0 2 2 4 5 6 6 6 6 5 5 5 4 6 6 5 4 4 5 6 5 5 8 8 6
26 27 27 27 26 26 25 23 23 24 24 24 23 23 22 21 19 18 18 18 17 18 17 15 16 17 18 19 16 14 15 15 14 13 12 11 9 9 9 8 7 6 6 6 5 5 5 5 4 5 5 5 4 3 2 1 3 4 3 2 0 1 3 2 4 4 4 4 4 5 5 6 6 6 7 7 6 6 6 4 3 4 6 7 6
25 27 28 27 26 26 25 24 24 25 25 25 24 23 23 22 20 18 19 18 17 19 19 17 17 18 20 20 17 15 14 15 15 14 13 11 10 10 10 9 9 8 6 6 6 5 5 5 5 5 5 4 4 4 3 2 2 3 5 6 4 3 3 1 1 2 4 4 3 5 5 5 6 7 8 7 7 6 4 3 3 4 4 5 5
25 27 27 26 27 26 25 24 24 24 26 26 25 24 23 22 20 18 20 20 19 20 20 19 19 20 20 19 18 16 15 16 16 15 13 12 11 11 11 10 10 9 8 7 7 6 6 6 6 6 6 5 5 6 4 3 3 2 4 6 5 4 3 1 2 1 4 3 4 7 6 4 5 7 7 5 5 5 4 3 3 3 2 4 5
26 27 26 26 27 27 26 24 24 24 25 25 24 23 22 22 20 19 20 20 20 21 21 20 21 21 20 19 19 17 15 16 16 15 14 13 13 13 12 11 10 10 9 9 8 8 7 7 7 7 7 7 5 6 5 3 2 2 2 5 5 3 3 2 2 2 1 1 6 5 5 7 6 5 7 5 5 5 5 4 4 3 3 4 6
28 28 26 26 28 28 27 25 24 25 25 25 24 23 23 22 21 20 21 21 21 21 21 22 23 22 21 20 19 17 16 17 16 15 15 14 15 15 13 13 11 10 10 10 9 8 8 8 8 9 8 7 6 6 5 3 3 2 3 6 6 4 3 3 3 2 2 2 3 3 5 8 5 5 7 5 6 6 6 6 6 6 5 5 5
29 29 27 27 28 29 29 27 26 26 26 25 24 24 24 23 23 24 22 21 21 22 21 23 24 22 20 20 19 18 18 18 17 16 16 15 16 15 14 14 13 11 10 10 10 9 9 10 10 10 9 7 7 7 5 3 3 3 4 5 6 4 3 3 5 5 3 3 3 4 5 5 5 7 8 7 8 7 6 6 6 6 5 5 5
29 29 28 29 30 30 30 29 27 26 27 26 24 26 26 24 25 26 23 22 22 23 22 23 24 22 21 21 19 18 18 19 18 18 17 16 15 15 14 14 14 12 10 10 10 9 10 10 10 10 9 8 7 8 7 5 5 5 5 5 6 5 4 5 6 7 6 4 3 4 5 5 6 6 6 9 9 6 5 6 5 5 5 5 6
Wind_Direction
163 158 153 145 139 143 142 139 136 137 136 135 135 132 131 128 125 120 118 115 113 110 108 109 111 111 112 113 112 111 109 109 108 108 107 106 106 105 104 103 102 101 100 99 99 98 97 95 95 97 97 98 97 97 99 101 100 101 102 100 99 98 100 103 104 105 104 103 104 104 105 108 112 114 113 117 117 113 112 111 111 108 106 107 112
160 158 151 144 140 140 140 139 137 138 137 139 137 136 134 131 128 124 122 119 116 112 110 112 114 114 114 114 112 111 109 108 108 107 107 106 105 104 104 103 103 102 101 100 101 99 99 99 99 101 101 101 100 100 102 103 101 101 101 100 101 101 98 97 99 99 102 104 104 104 105 106 106 113 120 124 121 120 120 120 121 111 102 102 107
154 158 150 143 143 141 143 142 139 139 139 139 139 139 134 131 129 127 125 123 120 115 113 114 116 115 114 114 113 112 109 108 108 108 107 106 106 106 105 104 102 101 101 101 102 103 104 105 106 106 105 103 103 104 104 103 101 100 99 97 100 102 101 101 102 101 100 103 109 111 110 107 103 109 119 124 125 124 123 124 127 119 106 103 106
157 156 149 144 145 144 145 144 141 142 140 138 136 134 132 132 129 129 128 125 122 117 116 116 116 115 115 115 114 113 110 110 109 107 106 106 108 108 106 103 101 100 101 103 105 108 109 109 110 110 109 108 107 107 107 105 103 101 99 96 95 95 97 100 101 102 102 102 111 123 122 116 109 109 112 113 120 123 124 126 129 122 113 114 112
159 153 149 147 147 146 145 144 142 143 142 140 138 135 135 132 127 130 129 127 125 120 119 118 117 116 116 114 113 113 112 112 109 106 105 106 107 107 105 102 101 102 102 104 106 108 109 109 109 109 110 110 110 113 114 113 111 109 105 101 97 93 96 97 96 99 106 103 107 123 125 119 113 113 115 113 116 123 126 126 126 124 122 122 119
157 152 151 149 148 147 146 146 143 143 141 139 138 136 135 131 129 131 130 129 125 123 123 121 119 118 117 116 115 116 115 114 110 109 108 107 106 106 105 103 104 105 105 105 105 103 103 104 103 103 104 104 108 116 119 117 116 113 109 105 102 101 102 102 103 109 115 110 106 118 122 118 117 116 116 117 121 125 128 129 129 130 131 129 127
154 153 153 151 148 147 148 147 145 144 140 137 135 133 132 130 129 130 131 130 127 127 128 125 123 122 119 119 119 120 120 116 114 113 110 109 109 108 107 106 107 107 108 108 104 100 99 99 97 99 101 101 105 113 119 119 117 114 110 105 105 107 107 107 112 119 123 115 109 116 120 119 123 123 121 119 122 126 128 130 131 133 133 132 131
153 154 155 152 148 148 148 146 145 144 141 138 135 131 129 128 127 129 131 131 131 131 130 126 125 125 123 122 121 123 122 118 117 114 110 110 110 109 108 108 108 108 108 108 105 101 97 95 94 97 99 102 104 111 119 121 120 118 114 109 106 105 108 111 114 121 130 126 116 115 118 122 124 125 126 123 121 125 129 130 133 138 133 133 137
154 157 157 154 149 149 147 147 146 144 143 141 139 134 131 130 128 129 131 132 133 132 129 126 126 127 127 126 123 123 121 118 117 114 111 111 109 107 108 109 110 109 108 106 105 102 98 94 94 95 95 97 101 110 120 124 124 121 120 119 115 113 113 113 114 118 131 135 124 123 126 130 129 127 129 131 135 133 129 128 135 143 141 146 151
157 160 160 156 152 153 151 150 149 148 147 145 143 138 136 134 131 131 132 133 132 132 130 128 127 128 130 129 125 125 123 119 117 115 113 109 107 106 107 109 110 111 108 106 105 103 99 95 96 96 93 92 94 106 118 124 125 123 123 125 133 135 117 128 134 125 131 137 134 135 139 142 139 134 131 135 145 146 130 122 130 146 158 176 176
160 162 165 161 156 158 156 155 154 153 150 147 146 143 141 138 135 135 135 133 131 132 132 131 129 128 131 131 128 127 124 119 117 113 112 110 108 108 109 110 110 110 107 106 106 105 101 99 101 98 91 87 89 100 113 121 124 126 124 122 133 75 58 125 153 144 141 141 143 143 144 155 148 141 138 135 141 146 140 135 142 155 169 187 184
163 164 166 162 156 159 158 157 157 156 153 150 150 148 147 143 140 139 138 135 133 132 132 133 132 131 131 131 129 126 122 121 118 113 112 111 110 110 110 111 110 108 107 108 109 109 106 105 105 98 87 83 83 91 104 117 125 129 122 110 96 61 60 107 147 151 151 145 151 153 152 162 151 144 145 143 146 151 156 157 162 170 169 173 172
164 163 160 159 157 160 159 157 157 157 155 152 152 151 151 149 143 142 141 139 138 135 134 135 133 131 131 131 130 127 125 123 120 117 113 111 111 113 112 112 111 108 108 111 116 117 114 112 107 96 83 75 73 78 90 105 120 127 125 111 100 76 64 111 149 151 153 153 160 162 157 156 146 141 144 146 152 159 172 174 176 178 176 179 187
162 160 156 157 157 159 158 157 157 156 156 154 155 155 156 154 148 146 145 144 144 140 137 134 132 131 132 132 131 131 129 126 126 122 117 115 116 116 115 114 111 109 112 118 126 126 121 115 104 91 74 65 65 71 82 98 116 120 119 112 105 78 55 112 154 153 155 159 157 152 147 146 143 142 142 142 145 149 157 160 159 161 167 184 199
159 157 155 156 155 157 157 158 158 157 157 158 158 156 159 156 150 149 148 148 147 143 139 136 135 134 136 135 133 132 130 131 132 127 122 121 123 121 118 114 110 112 119 127 134 131 122 110 93 80 64 54 57 67 82 96 115 122 123 116 93 57 53 121 153 153 154 152 139 133 129 130 134 136 135 137 145 149 150 146 120 120 156 205 209
158 156 154 155 156 157 157 159 159 157 158 160 158 157 160 156 149 151 150 150 149 146 142 139 138 139 140 137 135 134 134 138 138 132 126 125 129 127 120 116 114 120 129 135 138 133 117 92 73 65 59 55 60 72 84 93 108 119 117 99 67 49 74 130 149 151 147 132 126 127 122 119 120 126 131 140 148 147 151 155 150 150 223 275 279
159 157 155 157 157 158 159 159 159 158 160 159 157 157 157 154 151 152 152 152 153 150 146 143 141 143 144 139 137 136 138 142 141 137 131 130 133 129 123 120 122 130 136 139 141 132 103 77 65 63 65 69 76 86 94 98 100 99 85 73 51 47 96 136 143 145 133 113 122 125 120 119 123 129 135 139 116 83 62 83 147 190 246 262 269
161 161 159 158 158 159 159 158 159 160 161 159 158 157 155 154 154 154 154 155 157 154 150 147 145 146 144 140 140 139 142 144 141 139 140 143 139 131 126 124 131 138 141 145 143 126 93 75 70 70 76 83 88 94 97 97 91 87 79 64 43 45 110 141 138 128 117 107 116 122 120 124 131 129 124 105 65 44 25 17 355 300 283 274 277
163 164 162 160 160 160 160 160 161 162 163 162 159 158 157 157 157 158 157 159 160 155 154 151 146 145 141 141 142 142 144 145 142 142 152 161 146 134 131 131 137 144 147 146 134 108 88 76 70 71 74 78 82 86 82 80 73 64 65 61 57 71 116 134 120 110 102 98 108 114 120 131 132 126 119 90 58 16 353 350 347 339 310 303 311
164 165 164 164 164 163 163 163 163 165 166 164 162 160 160 159 158 161 161 161 160 154 155 151 147 146 143 144 144 145 146 146 147 148 158 167 152 140 136 136 141 149 151 147 131 109 97 84 73 65 54 53 49 52 52 52 46 50 83 107 90 93 116 113 101 98 90 89 96 101 115 133 131 130 119 82 56 4 350 357 10 15 354 337 337
165 169 168 168 169 168 169 168 167 169 169 165 163 161 160 161 160 162 163 163 158 152 155 154 154 152 149 150 150 149 148 149 153 153 158 162 154 147 141 141 147 156 154 144 128 108 99 84 63 40 28 26 26 32 41 46 50 70 104 122 105 99 103 94 94 92 86 83 81 88 100 112 116 122 106 65 40 10 5 20 29 23 6 352 347
167 171 173 175 174 173 174 173 172 172 173 168 163 163 164 163 160 162 164 163 160 160 166 166 163 157 153 154 154 152 150 153 158 156 157 158 155 149 145 146 151 155 150 139 124 109 97 73 36 17 12 14 26 46 56 65 87 102 103 100 89 85 88 89 93 88 83 81 77 83 90 96 102 106 91 65 42 31 35 42 37 27 18 11 5
169 173 177 179 177 176 177 177 175 175 176 171 167 168 170 167 164 166 167 166 167 168 171 171 166 159 155 156 156 155 153 156 159 153 154 157 153 150 150 150 152 151 145 136 124 111 83 34 2 358 4 29 76 80 78 89 108 110 100 91 78 76 88 92 89 85 83 81 79 82 86 88 88 82 72 68 57 51 57 52 43 32 26 21 14
173 174 176 178 177 177 180 179 176 177 177 175 174 175 175 173 170 172 173 172 172 168 165 166 165 161 159 159 158 156 155 160 160 152 154 158 152 150 152 152 151 144 136 125 103 64 21 0 352 353 12 114 133 113 105 113 118 112 100 91 81 79 89 91 86 85 84 82 80 80 81 79 78 76 68 65 58 55 56 52 45 34 28 24 16
176 174 175 178 178 181 184 181 179 179 179 179 179 179 178 176 174 176 179 178 173 165 160 161 163 162 161 159 156 156 158 165 162 151 153 156 150 148 148 149 144 131 113 67 40 28 15 8 3 3 114 139 143 129 124 128 127 119 107 98 93 89 89 90 86 84 84 83 82 79 77 73 72 74 67 62 58 54 52 48 44 34 31 25 19
176 176 178 181 181 184 187 183 181 181 183 184 183 180 180 179 177 178 182 180 173 166 163 161 162 162 161 160 160 161 163 165 159 151 151 150 145 144 143 145 136 108 54 28 29 23 18 14 13 49 149 143 140 135 134 135 135 129 117 111 110 105 96 94 92 88 86 84 83 79 74 69 65 67 63 58 54 51 49 47 43 36 33 27 23
176 178 180 182 182 186 188 187 187 187 187 188 186 182 182 183 180 179 183 180 173 171 168 165 166 165 165 167 167 165 163 161 157 149 145 144 143 140 137 137 122 83 38 21 23 24 21 18 27 127 150 144 139 140 144 144 145 146 134 128 130 128 111 103 102 96 89 85 85 81 72 64 58 56 55 51 48 46 45 44 40 36 36 30 27
172 175 177 181 184 188 190 190 192 192 191 191 191 189 186 184 182 182 183 180 175 175 172 169 169 170 172 173 171 164 159 158 154 146 144 146 145 141 137 136 108 66 31 10 15 23 27 27 53 139 146 142 139 139 151 156 161 162 148 142 143 145 133 119 112 102 92 86 87 84 76 64 53 47 45 43 42 42 40 40 38 34 35 32 30
169 172 174 181 188 190 192 191 193 194 193 196 197 194 189 186 185 184 182 181 179 176 175 174 174 176 177 176 170 161 156 155 151 147 152 153 146 141 147 160 106 29 8 357 356 8 29 44 78 147 152 146 142 139 151 158 167 170 158 153 152 153 148 132 120 112 98 89 91 90 83 67 51 43 37 35 36 37 36 36 37 34 31 32 34
169 171 174 184 189 190 193 193 195 195 194 199 200 197 192 189 188 185 184 183 180 178 178 178 178 179 179 176 169 160 157 158 157 163 166 152 135 126 145 205 320 342 344 344 335 352 41 61 92 150 162 163 157 154 162 163 168 172 168 167 167 165 158 139 124 120 102 92 93 92 88 66 48 38 29 32 34 36 34 31 33 36 32 31 36
168 169 175 185 188 190 193 195 198 197 195 197 199 197 192 192 191 186 186 183 178 181 182 182 182 180 179 174 169 165 165 168 170 174 165 135 122 88 344 285 314 325 312 309 302 354 51 68 87 128 162 180 184 198 205 193 183 179 177 179 182 184 178 165 142 120 103 91 85 84 82 58 47 37 24 26 32 35 33 27 28 36 37 35 36
168 169 175 181 185 189 191 194 198 196 194 195 195 194 191 192 192 189 187 182 179 184 184 184 182 181 181 177 173 173 174 176 174 167 145 130 138 103 299 267 259 240 273 270 247 293 23 66 79 88 137 185 205 226 222 212 200 196 193 192 194 194 191 187 172 127 106 90 70 63 53 42 42 34 21 17 21 29 28 25 28 31 35 38 39
171 170 173 176 181 187 191 195 197 196 195 193 193 193 191 192 192 189 184 182 184 185 183 183 182 182 183 180 180 180 179 180 175 156 137 140 158 209 225 208 204 204 250 246 230 241 356 71 88 77 94 153 342 237 222 216 215 220 216 216 210 203 206 210 201 156 124 89 42 23 18 19 28 28 20 14 19 27 25 25 29 29 30 34 39
170 169 170 171 178 188 192 196 197 197 196 194 194 192 189 188 189 186 183 184 187 185 182 183 184 184 183 183 185 185 182 180 171 157 151 171 195 222 220 188 188 207 225 234 243 247 259 295 304 19 26 12 17 13 221 213 229 231 216 219 215 210 216 221 216 194 147 96 22 10 1 338 349 13 12 7 17 28 25 23 24 25 29 30 33
164 167 170 170 176 186 192 195 197 198 198 198 196 191 187 184 183 181 181 185 188 187 185 186 187 185 186 188 190 188 184 181 177 177 189 202 208 235 244 197 201 220 221 234 259 263 267 281 296 323 335 346 21 30 44 183 195 164 158 178 191 194 203 208 210 199 144 91 351 341 336 330 335 350 355 351 356 14 20 19 17 17 24 26 28
161 166 169 169 175 185 189 190 193 197 199 201 197 191 185 178 177 177 181 186 188 189 188 189 187 186 190 191 191 190 185 183 187 194 204 210 217 226 217 195 209 232 230 238 255 266 273 279 298 320 318 312 355 26 48 80 126 135 130 139 158 160 168 184 194 188 156 35 337 319 312 324 334 336 346 349 340 351 8 14 16 18 21 23 26
163 164 166 166 172 182 186 186 189 193 198 199 195 189 182 177 178 178 182 186 188 188 186 188 187 186 188 184 184 185 177 174 185 199 203 212 217 198 190 190 202 222 230 242 252 261 265 265 271 288 295 296 338 20 64 88 117 138 134 138 151 151 158 191 217 247 302 326 337 322 316 331 339 332 333 343 339 340 357 9 15 20 22 20 24
163 163 164 163 166 176 182 183 184 187 194 195 191 187 182 180 181 181 184 185 186 186 184 186 186 185 183 176 176 174 167 171 188 200 201 208 209 192 193 194 195 212 228 246 259 263 258 255 254 256 276 292 344 25 59 88 116 149 159 154 148 169 242 268 255 266 302 311 321 332 336 354 2 355 335 329 340 348 348 358 6 15 19 16 19
161 162 164 161 163 172 177 179 179 181 187 189 187 184 182 181 181 181 185 186 186 187 188 189 188 186 179 171 174 173 170 181 195 199 200 205 206 200 198 196 202 216 228 250 271 267 243 232 233 245 274 279 299 1 7 26 111 173 198 208 202 224 250 272 266 270 286 287 291 305 328 360 10 7 358 336 340 349 342 340 350 3 11 10 12
161 161 162 161 164 169 171 176 179 178 181 182 182 181 178 178 180 183 189 191 189 189 190 188 186 184 178 176 180 180 183 191 197 197 194 197 198 197 194 197 212 221 229 245 251 229 204 199 213 241 275 278 273 300 307 302 279 262 265 257 244 236 245 258 265 270 276 274 270 263 287 337 352 349 350 343 332 331 336 334 333 348 359 4 6
159 159 161 163 166 170 170 175 178 179 180 179 179 178 174 175 181 187 192 192 189 189 188 183 181 181 182 189 188 186 191 193 192 190 186 190 189 190 194 200 209 215 223 224 211 205 200 196 208 241 272 286 294 291 272 271 267 271 287 268 253 253 255 263 270 273 275 268 262 262 275 292 307 326 332 329 325 311 316 332 328 332 341 353 5
158 160 163 165 168 172 173 176 179 182 184 183 181 180 180 181 184 189 191 189 188 188 186 183 181 183 190 196 195 193 195 192 188 186 187 194 194 192 195 200 204 212 215 205 204 222 223 209 217 255 272 273 281 280 245 241 253 262 296 303 294 286 263 259 267 269 273 273 270 274 284 285 281 299 318 316 334 321 304 328 334 333 337 349 5
160 163 165 166 170 174 176 179 183 185 187 188 186 184 184 185 185 186 187 187 189 189 188 187 189 197 201 200 201 201 197 194 192 190 191 194 199 198 197 199 205 216 217 213 221 234 235 224 235 267 276 270 270 266 237 237 253 235 93 342 316 328 286 265 266 264 273 284 280 282 298 299 272 270 294 301 321 337 323 329 340 354 355 358 11
160 164 165 167 171 176 179 181 184 186 188 189 189 186 184 185 186 187 187 189 192 192 193 195 200 210 210 205 208 205 198 199 199 197 199 198 198 203 203 202 209 218 216 219 228 235 238 237 247 258 266 265 255 251 234 248 267 243 137 18 109 34 309 289 302 283 280 289 280 280 309 328 303 278 287 295 301 320 325 324 330 354 1 5 19
159 165 167 169 173 179 180 180 184 186 186 187 187 186 187 188 190 191 192 195 197 197 201 203 205 210 207 205 208 203 199 204 204 202 205 205 206 212 214 211 213 211 206 212 222 230 232 235 243 242 249 249 233 239 232 247 287 264 235 221 127 348 252 277 336 301 286 297 284 293 306 319 329 314 301 300 300 304 313 316 304 324 359 13 27
160 167 170 171 175 180 181 180 185 187 186 186 186 188 191 191 191 191 191 193 196 202 206 204 201 204 203 203 204 201 205 209 206 204 206 211 217 218 218 219 220 213 209 218 223 232 232 225 230 230 233 233 228 234 237 253 282 277 261 248 258 261 231 266 356 297 308 303 305 342 334 314 323 330 322 308 307 308 299 311 315 313 352 7 11
163 166 169 173 176 180 182 181 186 189 187 187 188 192 194 194 193 195 194 193 196 201 203 201 199 201 201 201 200 203 212 212 205 202 205 214 220 220 219 221 223 218 219 225 225 227 223 218 224 228 225 226 235 235 239 267 267 285 279 251 249 241 231 253 178 253 322 294 311 350 8 351 330 334 335 317 311 312 279 280 322 328 346 344 339
166 167 168 173 177 181 184 184 186 190 190 188 190 194 197 196 195 199 201 200 199 200 201 202 201 201 200 198 200 207 214 210 204 205 208 218 227 227 222 220 222 221 223 229 229 226 219 217 224 226 225 227 237 232 226 248 274 319 277 222 223 231 231 238 205 209 159 245 310 332 2 359 356 353 348 331 308 298 276 273 287 294 301 310 320
170 171 171 174 179 181 185 187 188 190 193 194 194 197 200 200 201 205 206 204 205 204 202 202 200 199 200 200 204 211 213 208 207 210 213 222 231 232 225 220 220 220 225 233 234 229 226 227 227 225 227 229 229 225 218 223 241 298 275 217 215 233 241 245 238 229 168 197 288 293 324 339 350 356 353 343 313 293 277 283 287 286 295 295 298
174 175 175 176 178 180 183 188 191 193 197 201 203 203 202 204 208 209 207 205 207 204 198 196 196 198 202 204 208 214 212 208 211 218 220 223 228 231 228 224 221 220 228 236 235 236 239 235 227 226 229 228 227 229 231 239 242 271 284 237 229 240 245 245 237 229 214 213 246 267 289 308 318 337 352 341 317 298 277 287 296 289 287 286 274
175 176 177 178 179 181 183 187 194 197 199 202 203 203 202 205 208 208 206 199 196 194 190 191 195 198 203 205 209 211 207 208 215 221 222 223 225 227 228 225 221 222 232 238 237 244 246 235 229 231 233 227 227 235 241 250 258 268 280 267 260 259 252 264 260 242 232 221 225 265 280 297 302 311 336 333 324 316 295 295 303 295 283 278 265
Height
811 812 813 813 814 814 816 816 818 818 818 819 819 820 820 821 822 822 822 823 823 823 823 823 823 823 824 823 824 824 825 825 825 826 826 826 826 826 825 825 825 825 825 825 825 825 825 825 825 825 825 826 826 827 827 827 828 828 828 828 828 828 827 827 827 827 827 827 827 827 827 827 827 826 826 826 826 827 827 827 827 827 827 828 828
810 812 813 813 815 815 817 817 818 818 819 820 820 821 821 822 822 823 823 823 823 823 823 824 824 824 825 824 824 825 825 826 826 826 827 827 827 827 826 826 826 826 826 826 826 826 826 825 826 825 826 826 827 827 828 828 829 829 829 829 829 829 828 829 829 829 829 829 828 828 828 828 827 827 827 826 826 827 827 827 827 827 828 828 829
809 812 813 814 815 816 817 817 818 819 820 820 821 822 822 823 823 823 823 824 824 824 824 824 825 825 825 825 825 825 826 826 827 827 827 828 828 828 827 827 827 827 826 826 826 827 827 827 826 826 826 827 828 828 829 829 829 830 829 829 829 829 829 829 830 830 830 830 830 829 829 829 828 828 827 827 827 827 828 828 828 828 828 829 829
810 812 813 814 816 817 817 818 819 819 820 821 822 822 823 823 823 824 824 824 824 824 825 825 825 826 826 826 826 825 826 827 827 827 828 828 828 828 828 828 828 828 827 827 827 828 828 828 827 827 827 828 829 829 830 830 830 830 830 830 830 830 830 830 831 831 831 831 830 830 830 830 829 829 828 828 828 828 829 829 829 829 829 830 830
811 812 813 814 816 817 818 818 819 820 820 821 822 822 823 824 824 825 825 825 825 825 825 825 825 826 827 827 827 826 827 827 828 828 829 829 829 829 829 829 829 828 828 828 829 829 829 828 828 828 828 829 830 830 831 831 831 831 830 831 831 831 831 832 832 832 832 832 832 831 831 831 830 830 829 829 829 830 830 830 830 830 830 830 830
811 812 814 815 816 817 818 819 820 820 821 822 822 823 824 824 825 825 825 826 825 826 826 826 826 827 827 827 828 827 828 828 828 829 829 830 830 830 830 830 829 829 829 829 829 829 829 829 829 829 830 830 831 831 831 831 831 831 831 831 832 832 832 833 832 833 833 833 832 832 832 831 831 831 830 830 830 830 830 830 830 830 830 831 831
811 813 814 815 817 818 819 819 820 821 821 822 823 823 824 824 825 825 826 826 826 826 826 827 827 827 828 828 828 828 829 829 829 830 830 831 831 831 831 830 830 830 830 830 830 830 830 830 830 831 831 832 832 832 832 832 832 832 832 832 832 832 833 833 833 833 833 833 833 833 832 832 831 831 831 831 831 831 831 831 831 831 831 831 831
812 814 815 816 817 818 819 820 820 821 822 822 823 824 825 825 826 826 826 827 827 827 827 827 827 827 828 829 829 830 830 830 830 830 831 831 831 831 831 831 831 831 831 830 831 831 831 831 831 832 832 832 833 833 833 833 833 832 832 833 833 833 833 834 834 834 834 834 834 834 833 832 832 832 832 832 832 832 831 831 831 831 831 831 831
813 814 815 817 818 819 820 820 821 821 822 823 823 824 825 826 826 827 827 827 827 828 828 828 828 828 828 829 830 831 831 831 831 831 832 832 832 832 832 832 832 832 831 831 831 832 832 832 832 832 833 833 833 833 833 833 833 833 833 833 834 834 834 834 834 835 835 835 835 834 834 833 833 833 833 832 832 832 832 832 831 831 831 832 832
813 814 816 817 818 820 820 821 821 822 822 823 824 825 825 826 827 827 827 828 828 828 828 828 829 829 829 830 830 831 832 832 832 832 833 833 833 833 833 833 833 832 831 831 832 833 833 833 833 833 833 833 833 833 833 833 833 834 834 834 834 834 834 834 835 835 835 835 835 835 835 834 834 834 834 833 833 833 832 832 832 831 832 832 831
813 815 816 817 819 820 820 821 821 822 822 823 824 825 826 826 827 828 828 828 828 828 828 829 829 830 830 830 831 832 832 833 833 833 833 834 834 834 834 833 833 832 832 832 832 833 833 833 833 833 834 834 834 834 834 834 834 834 834 834 834 834 834 834 835 835 835 836 836 835 835 835 835 835 834 834 834 833 833 832 832 832 832 831 831
814 815 816 818 819 820 821 821 822 822 823 823 824 825 826 826 827 828 828 829 829 829 829 829 830 830 831 831 831 832 833 833 834 834 834 834 835 834 834 834 833 833 832 833 833 834 834 834 834 834 834 834 834 834 834 834 835 835 834 835 834 834 834 834 835 835 836 836 836 836 835 835 835 835 835 835 834 834 834 833 833 832 832 831 831
814 816 817 818 819 820 821 822 822 823 823 824 825 825 826 827 828 828 829 829 829 829 829 830 830 831 831 831 832 833 833 834 834 834 835 835 835 835 834 834 833 833 833 833 834 834 834 834 834 834 835 835 835 835 835 835 835 835 835 835 835 834 834 834 835 835 836 835 836 836 835 835 835 835 835 835 834 834 834 834 833 833 832 831 831
815 816 817 819 819 821 821 822 823 823 824 824 825 826 827 827 828 829 829 830 830 830 830 830 831 831 832 832 833 833 834 834 835 835 835 835 835 835 834 834 833 833 833 834 834 834 835 835 835 835 835 835 835 835 835 835 835 835 835 835 835 835 834 834 835 835 835 835 835 835 835 835 835 835 835 835 835 834 834 834 834 833 833 832 831
815 816 818 819 820 821 822 823 823 824 824 825 826 826 827 827 828 829 829 830 830 830 830 831 831 832 832 833 833 834 834 835 835 836 836 836 836 835 834 834 833 834 834 834 834 835 835 835 835 835 835 835 835 836 835 836 835 835 835 835 835 835 834 834 834 835 835 835 835 835 835 835 835 835 835 835 835 834 834 834 834 833 833 832 831
815 816 818 819 820 821 822 823 823 824 824 825 825 826 827 827 828 829 829 829 830 830 830 831 831 832 833 833 834 834 835 835 836 836 836 836 836 836 834 834 834 834 834 834 835 835 836 836 836 836 835 835 835 836 836 836 836 836 835 836 836 835 834 834 834 835 835 835 835 835 834 834 835 835 835 835 835 834 834 834 833 833 833 832 831
815 816 817 818 820 821 822 822 823 824 824 825 825 826 827 827 828 828 829 829 829 830 830 831 831 832 833 833 834 834 835 835 836 836 836 837 836 836 835 835 834 834 834 835 835 836 836 836 836 836 836 836 835 836 836 836 836 836 836 836 836 835 835 835 835 835 835 835 834 834 834 834 834 835 835 835 834 834 833 833 833 833 832 832 831
815 817 817 818 819 820 822 822 823 824 824 825 826 826 827 827 828 828 829 829 829 830 830 831 831 832 833 833 834 835 835 835 836 836 837 837 836 836 835 835 835 834 835 835 836 836 836 836 836 836 836 836 836 836 836 837 837 837 837 837 836 835 835 835 836 836 835 835 834 834 834 834 834 834 834 834 834 833 833 832 832 832 831 831 830
816 817 817 819 819 821 821 822 823 823 824 825 826 826 827 827 828 828 829 829 830 830 830 831 831 832 832 833 834 834 835 835 836 836 837 837 836 836 835 836 836 835 835 835 836 836 836 836 836 836 836 837 837 837 837 837 837 837 837 837 836 835 836 836 836 836 836 835 834 834 834 834 834 834 834 834 834 833 832 832 832 831 831 830 830
817 817 818 819 819 821 821 822 823 823 824 825 826 826 827 827 828 829 829 829 830 830 831 831 831 832 832 833 834 834 835 835 836 836 837 837 836 836 836 836 836 836 836 836 836 836 836 836 836 836 837 837 837 837 837 838 838 837 836 836 836 836 837 837 837 836 836 835 834 834 833 834 834 834 834 834 834 833 832 832 831 831 831 830 829
818 818 818 819 819 821 821 822 823 823 824 825 826 826 827 827 828 829 829 830 830 830 831 831 832 832 833 832 833 834 834 835 836 836 837 836 836 835 836 836 837 836 836 837 837 837 837 837 837 837 837 837 837 837 837 837 837 837 836 836 836 837 837 837 837 836 836 835 834 834 833 833 834 834 834 834 833 833 832 831 831 831 830 830 829
817 818 819 819 820 821 821 822 823 823 824 825 826 826 827 827 828 829 829 829 830 830 830 831 831 832 832 832 833 834 834 835 836 836 836 836 836 836 836 837 837 837 837 837 837 838 838 838 838 838 838 837 837 837 837 837 837 837 837 837 837 837 837 837 837 836 836 835 835 834 834 833 834 834 834 834 833 833 832 831 831 830 830 830 829
816 817 818 819 819 820 821 822 822 823 824 825 825 826 827 827 828 828 828 829 829 830 830 830 831 831 832 833 833 834 834 835 836 836 836 836 836 836 837 837 838 837 837 838 838 838 839 839 838 838 838 838 837 837 838 837 837 837 837 837 837 838 838 837 837 837 836 836 835 835 835 834 834 834 834 834 833 832 832 831 831 830 830 829 829
815 816 817 818 819 820 821 822 822 823 824 824 825 826 826 827 828 828 828 829 829 830 830 831 831 832 832 833 834 834 835 835 836 836 836 836 836 836 837 837 838 838 838 838 839 839 839 839 839 838 838 838 838 838 838 838 838 838 838 838 838 839 838 838 837 837 837 836 836 836 836 836 835 835 835 834 833 833 832 831 831 830 830 829 828
813 815 816 817 818 819 820 821 822 822 823 824 824 825 826 827 827 828 828 829 829 830 831 831 832 832 833 833 834 834 835 836 836 836 836 836 836 837 837 838 838 838 838 838 839 840 839 839 839 838 838 838 838 838 838 838 838 838 838 838 839 839 838 838 838 837 837 837 837 836 836 836 836 835 835 834 833 833 832 831 831 830 830 829 828
813 814 815 816 817 818 819 820 821 822 823 823 824 825 826 826 827 828 828 829 830 830 831 832 832 833 833 833 834 834 835 836 836 836 836 836 837 837 838 838 838 838 838 838 839 839 839 839 839 838 838 838 838 839 839 839 839 839 839 839 839 839 839 838 838 838 837 837 837 837 837 836 836 835 835 835 834 833 832 831 831 830 830 829 828
812 813 814 816 817 817 819 820 820 821 822 823 824 825 825 826 827 828 828 829 830 830 831 831 832 833 833 834 834 834 835 835 836 836 837 837 838 838 838 838 838 838 838 838 839 839 840 840 839 839 839 839 839 839 839 839 839 839 839 839 839 839 839 839 838 838 838 837 837 837 837 837 836 836 835 835 834 833 832 832 831 830 830 829 828
811 813 814 815 816 817 818 819 820 820 821 822 823 824 825 826 827 828 828 829 830 830 831 831 832 832 833 834 834 834 835 835 836 836 837 838 839 838 838 839 838 838 838 838 839 839 840 840 840 840 839 840 839 840 839 839 839 839 839 839 839 839 839 839 839 839 838 838 837 837 837 837 836 836 835 834 834 833 832 832 831 830 830 829 828
810 812 813 814 815 816 817 819 819 820 821 821 822 823 825 826 827 828 828 829 829 830 831 831 832 832 833 833 834 834 835 836 836 837 838 839 839 839 839 839 839 839 838 838 839 840 841 841 841 840 840 840 840 840 840 840 840 839 839 839 839 839 839 839 839 839 839 838 838 837 837 837 836 836 835 835 834 833 833 832 831 830 830 829 828
809 810 812 813 814 816 817 818 819 820 820 821 821 823 824 825 826 827 828 829 830 830 831 831 832 832 833 833 834 834 835 836 837 838 838 839 839 839 839 839 839 839 838 839 839 840 841 841 841 841 841 841 841 841 841 840 840 840 840 840 839 839 839 839 839 839 839 839 838 838 838 837 837 836 836 835 834 833 833 832 831 830 830 829 829
808 810 811 812 814 815 816 817 818 819 820 821 821 822 823 824 825 826 828 829 830 830 831 831 832 832 833 833 834 834 836 836 838 838 838 838 838 839 839 839 839 839 839 839 840 840 841 841 841 841 841 841 841 841 841 841 840 840 840 840 840 840 840 840 839 839 839 839 839 838 838 837 837 836 836 835 834 834 833 832 831 831 830 829 829
807 808 809 811 813 814 815 816 817 818 819 820 821 822 823 824 825 826 827 828 829 830 831 831 831 832 833 833 834 835 836 837 838 838 838 838 838 839 839 839 839 839 839 840 840 841 841 841 841 841 841 841 841 841 841 840 839 840 840 840 840 840 840 840 839 839 839 839 839 839 838 838 837 837 836 835 834 834 833 832 832 831 830 829 829
806 807 809 810 812 813 815 816 817 818 819 820 820 821 823 823 824 825 827 828 829 829 830 831 831 832 833 834 835 835 836 837 838 838 838 838 839 840 840 840 840 839 840 840 841 841 841 841 841 841 841 841 840 840 840 839 839 840 840 840 840 840 840 840 840 839 839 839 839 838 838 838 837 837 836 836 835 834 833 832 832 831 830 829 829
805 807 808 810 812 813 814 815 816 817 818 819 820 821 822 823 824 825 826 827 828 829 830 831 832 832 833 834 835 836 836 837 837 838 838 838 839 840 840 840 840 839 840 841 841 841 841 840 840 840 840 840 840 840 839 839 839 839 839 839 839 840 840 840 840 839 839 839 839 838 838 837 837 837 836 836 835 834 833 832 832 831 830 829 829
804 806 808 809 811 812 813 814 815 816 817 819 820 821 822 823 824 825 826 827 828 829 830 831 832 833 834 834 835 836 836 837 837 838 838 839 840 840 840 840 840 840 840 840 841 841 841 840 840 840 840 840 840 839 839 839 839 839 839 839 839 840 840 840 840 840 839 839 839 838 837 837 837 836 836 836 835 834 833 833 832 831 830 830 829
803 805 807 809 811 812 813 814 814 816 817 818 819 820 822 823 824 825 826 827 828 829 830 831 832 833 834 835 835 836 836 837 837 838 839 839 840 840 841 840 840 841 840 840 841 841 841 840 840 840 840 840 840 839 839 839 839 839 840 840 840 840 840 840 840 840 839 839 839 838 838 837 836 836 836 835 835 834 834 833 832 831 830 830 829
803 804 806 808 811 812 813 814 814 815 816 817 819 820 822 823 824 826 827 827 828 829 830 831 832 833 834 835 835 836 837 837 838 839 839 839 840 840 841 841 841 841 841 840 840 840 841 841 840 840 840 840 840 840 839 840 840 840 840 840 840 840 840 840 840 839 839 839 839 838 838 837 836 836 835 835 834 834 833 833 832 832 830 830 829
803 804 805 808 810 812 813 814 814 816 816 817 818 820 822 823 824 826 827 828 828 829 830 831 832 833 834 835 835 836 837 838 839 839 839 839 840 840 841 841 842 842 841 841 840 840 840 840 840 840 840 840 840 839 840 840 840 840 840 840 839 839 840 840 839 839 839 838 838 838 837 837 836 836 835 835 834 833 833 833 832 832 831 830 829
802 804 806 807 810 812 813 814 815 816 817 817 819 820 822 823 824 826 827 828 828 829 830 831 832 833 834 835 836 836 837 838 839 839 839 840 840 841 841 842 842 842 841 841 841 840 840 840 840 840 839 840 840 840 840 840 840 840 840 839 839 839 839 839 839 839 838 838 838 837 837 837 836 835 835 834 834 833 833 833 832 832 831 830 829
802 803 806 807 810 812 813 814 815 816 817 818 819 820 822 823 824 825 826 827 828 829 830 831 832 833 834 835 836 836 837 838 838 839 839 840 840 841 841 842 842 842 842 841 841 841 840 840 840 840 840 840 840 840 840 840 840 840 839 839 839 839 839 839 839 838 838 837 837 836 836 836 836 835 835 834 834 833 833 833 832 831 831 830 829
802 803 805 807 809 811 813 814 814 816 817 817 819 820 821 822 823 825 825 826 828 829 830 831 832 833 834 835 836 837 837 838 838 839 839 840 841 841 841 842 842 842 842 841 841 841 841 840 840 840 840 839 840 840 840 840 840 840 839 839 839 839 839 839 839 838 837 837 836 836 835 835 835 835 834 834 833 833 833 832 832 831 831 830 829
802 803 805 807 809 811 813 813 814 815 816 817 818 819 821 821 822 824 825 826 828 829 830 831 832 833 834 835 836 837 837 838 838 839 840 840 841 841 841 841 841 842 842 842 841 841 840 840 840 840 839 839 839 840 840 840 840 840 839 839 839 838 838 838 838 837 836 836 835 835 834 834 834 834 834 834 833 833 833 832 832 831 830 830 829
801 803 805 806 809 811 812 813 814 815 816 818 818 819 820 821 823 824 825 827 828 829 831 832 833 834 834 835 836 837 837 838 838 839 840 840 841 841 841 841 841 842 842 841 841 841 841 840 840 840 839 839 839 839 840 840 840 840 840 841 841 840 839 837 836 836 836 835 835 834 834 833 834 834 834 833 833 832 832 832 832 831 831 830 829
801 803 805 806 808 810 812 813 814 815 816 817 818 820 821 822 823 824 826 827 828 830 831 832 833 833 834 835 836 837 837 838 838 839 840 840 840 841 841 842 842 842 841 841 841 841 841 840 840 840 839 839 839 839 840 839 839 839 840 842 842 843 844 839 835 835 835 835 834 834 834 833 833 834 833 833 833 832 832 832 831 831 830 830 829
800 802 804 805 808 810 811 813 814 815 816 817 819 820 821 822 824 825 826 827 828 829 830 831 832 833 833 834 835 836 837 837 838 839 840 840 840 841 841 842 842 842 841 841 841 841 840 840 840 840 840 840 839 839 839 839 839 839 839 841 843 845 845 839 837 836 834 834 834 833 833 833 833 833 832 832 832 831 831 831 831 830 830 830 829
799 801 803 805 807 809 811 813 814 815 816 817 819 820 821 822 823 824 825 826 827 828 829 830 831 832 833 834 835 836 836 837 838 839 839 840 840 841 841 841 842 842 841 841 841 841 840 840 840 840 840 840 839 839 839 839 839 839 839 839 840 842 840 838 839 839 835 833 834 833 832 832 832 832 832 831 831 830 830 830 830 830 829 829 829
798 800 803 804 806 809 811 812 814 815 816 817 818 820 821 822 823 823 824 825 826 827 828 829 830 831 833 834 835 835 836 837 837 838 839 839 840 840 841 841 841 841 841 841 840 840 840 840 840 840 839 839 839 839 839 839 839 839 838 838 838 838 837 837 839 840 839 836 833 832 833 832 832 831 831 830 829 829 830 830 830 829 829 829 829
798 800 802 804 806 808 811 812 813 815 816 817 818 819 820 821 822 823 824 825 826 827 828 829 830 831 832 833 834 835 836 836 837 838 838 839 839 840 841 841 841 841 840 840 840 840 840 840 840 840 839 839 839 839 839 839 839 838 838 838 838 837 837 836 836 837 839 838 835 832 832 832 831 830 830 829 829 828 829 829 829 829 828 829 829
796 798 800 803 805 807 810 812 813 814 816 817 818 819 820 820 821 822 823 825 825 826 827 828 830 831 832 833 833 834 835 836 836 837 838 839 839 840 840 840 840 840 840 840 840 840 840 840 840 839 839 839 839 839 839 838 838 838 838 837 837 837 836 836 836 835 836 838 837 834 832 831 831 830 829 828 828 828 828 828 828 828 828 828 828
794 797 799 801 804 806 809 811 812 814 815 816 817 818 819 820 821 821 823 824 825 826 827 828 829 830 831 832 833 833 834 835 836 837 838 838 839 839 840 840 840 840 840 840 840 840 840 840 839 839 839 839 839 839 839 838 838 838 838 837 837 836 836 835 835 835 834 836 836 834 833 832 830 829 828 828 828 827 827 827 827 827 827 827 828
793 795 797 799 802 805 807 809 811 813 814 815 816 817 818 819 820 821 822 823 824 825 826 827 828 829 830 831 832 833 834 835 836 836 837 838 839 839 839 840 840 840 840 840 840 840 840 839 839 839 839 839 839 839 838 838 838 838 837 837 836 836 836 835 835 835 834 834 835 834 832 831 830 828 828 828 827 826 826 826 825 825 826 826 827